www.pogodaiklimat.ru

Погода и климат >> Архив погоды >> Норвегия >> Эурскуг


ПОГОДА в Эурскуге

  • Прогноз погоды в Эурскуге
  • Монитор погоды в Эурскуге

АРХИВ ПОГОДЫ в Эурскуге

Время (UTC), дата Ветер
(напр.,м/с)
 
Видим.   Явления Облачность Т
(С)
Тd
(С)
f
(%)
Тe
(С)
Тes
(С)
Комфортность P
(гПа)
Po
(гПа)
Тmin
(С)
Tmax
(С)
R
(мм)
R24
(мм)
S
(см)
19 18.08 ЮЗ 2-3
{4}
н/о н/о +13.8 +10.8 82 +13 +13 1001.1 986.2
20 18.08 В 1-2
{2}
н/о н/о +11.7 +10.1 90 +11 +11 1000.8 985.8
21 18.08 ЮЗ 1-2
{2}
н/о н/о +12.2 +11.3 94 +12 +12 1000.8 985.8
22 18.08 В 1-2
{5}
н/о н/о +12.1 +11.5 96 +12 +12 1000.9 985.9
23 18.08 ЮВ 2-3
{3}
н/о н/о +12.3 +11.8 97 +11 +11 1000.8 985.8
00 19.08 Ю 1-3
{5}
н/о н/о +11.9 +11.4 97 +12 +12 1000.8 985.8 7
01 19.08 Ю 2-2
{3}
н/о н/о +12.0 +11.7 98 +11 +11 1000.5 985.5
02 19.08 Ю 3-4
{4}
н/о н/о +12.3 +12.2 99 +11 +11 1000.8 985.8
03 19.08 ЮВ 3-4
{6}
н/о н/о +11.6 +11.3 98 +10 +10 1000.9 985.9
04 19.08 Ю 3-5
{5}
н/о н/о +10.9 +10.8 99 +9 +9 1001.3 986.2
05 19.08 Ю 3-5
{6}
н/о н/о +11.3 +11.2 99 +9 +9 1001.9 986.8
06 19.08 Ю 4-7
{7}
н/о н/о +13.0 +12.7 98 +11 +11 1002.1 987.2 +10.6 +15.4 8
07 19.08 Ю 4-6
{8}
н/о н/о +14.1 +13.0 93 +13 +13 1002.4 987.5
08 19.08 Ю 4-6
{7}
н/о н/о +15.1 +13.6 91 +14 +14 1002.7 987.8
09 19.08 Ю 6-8
{9}
н/о н/о +14.4 +13.1 92 +12 +12 1002.4 987.5
10 19.08 Ю 6-11
{11}
н/о н/о +16.7 +12.9 78 +16 +16 1002.8 988.1
11 19.08 Ю 5-10
{10}
н/о н/о +16.5 +12.3 76 +16 +16 1002.8 988.0
12 19.08 Ю 6-11
{11}
н/о н/о +18.5 +12.7 69 +19 +19 1003.0 988.3
13 19.08 Ю 6-9
{12}
н/о н/о +18.0 +12.0 68 +17 +17 1003.5 988.8
14 19.08 Ю 7-11
{13}
н/о н/о +18.2 +11.5 65 +18 +18 1004.0 989.3
15 19.08 Ю 7-11
{11}
н/о н/о +18.2 +11.3 64 +18 +18 1004.4 989.6
16 19.08 Ю 8-12
{12}
н/о н/о +17.6 +11.2 66 +17 +17 1004.7 990.0
17 19.08 Ю 7-12
{13}
н/о н/о +15.9 +10.5 70 +14 +14 1005.5 990.7
18 19.08 Ю 5-11
{13}
н/о н/о +14.7 +12.0 84 +13 +13 1006.1 991.2 +13.0 +19.0
19 19.08 Ю 4-7
{8}
н/о н/о +15.0 +12.3 84 +14 +14 1006.7 991.8
20 19.08 Ю 5-7
{7}
н/о н/о +13.9 +12.6 92 +12 +12 1007.1 992.1
21 19.08 Ю 3-5
{6}
н/о н/о +14.1 +13.2 94 +13 +13 1007.5 992.5
22 19.08 Ю 4-7
{7}
н/о н/о +14.1 +13.0 93 +13 +13 1007.8 992.8
23 19.08 Ю 5-7
{7}
н/о н/о +13.6 +12.8 95 +12 +12 1008.0 993.0
00 20.08 Ю 3-6
{8}
н/о н/о +13.3 +12.5 95 +12 +12 1008.4 993.4 0.6
01 20.08 Ю 3-5
{6}
н/о н/о +13.1 +12.5 96 +12 +12 1008.6 993.6
02 20.08 Ю 3-4
{5}
н/о н/о +13.0 +12.4 96 +12 +12 1009.1 994.0
03 20.08 Ю 3-4
{5}
н/о н/о +11.9 +11.4 97 +10 +10 1009.3 994.2
04 20.08 Ю 4-5
{6}
н/о н/о +12.5 +12.0 97 +10 +10 1009.9 994.8
05 20.08 Ю 3-5
{5}
н/о н/о +12.2 +11.7 97 +10 +10 1010.3 995.2
06 20.08 Ю 4-6
{6}
н/о н/о +13.4 +12.6 95 +12 +12 1010.6 995.5 +11.8 +15.1 0.6
07 20.08 Ю 5-10
{10}
н/о н/о +15.2 +12.5 84 +14 +14 1011.0 996.0
08 20.08 Ю 6-9
{10}
н/о н/о +16.6 +11.5 72 +16 +16 1011.4 996.5
09 20.08 ЮЗ 6-10
{10}
н/о н/о +18.6 +11.2 62 +19 +19 1011.7 996.9
10 20.08 ЮЗ 6-9
{10}
н/о н/о +17.9 +9.5 58 +17 +17 1012.2 997.3
11 20.08 Ю 7-11
{13}
н/о н/о +19.7 +8.1 47 +20 +20 1012.2 997.5
12 20.08 Ю 6-10
{13}
н/о н/о +19.3 +8.9 51 +20 +20 1012.6 997.8
13 20.08 Ю 7-11
{12}
н/о н/о +18.0 +9.4 57 +17 +17 1013.1 998.3
14 20.08 Ю 7-11
{11}
н/о н/о +18.8 +8.8 52 +19 +19 1012.9 998.1
15 20.08 Ю 7-10
{12}
н/о н/о +17.3 +10.2 63 +16 +16 1013.2 998.3
16 20.08 Ю 6-9
{11}
н/о н/о +16.8 +10.7 67 +16 +16 1013.6 998.7
17 20.08 Ю 6-9
{11}
н/о н/о +16.7 +10.6 67 +16 +16 1014.2 999.2
18 20.08 Ю 5-9
{12}
н/о н/о +15.4 +11.0 75 +14 +14 1014.6 999.6 +13.4 +19.9
19 20.08 Ю 5-7
{10}
н/о н/о +14.5 +11.1 80 +13 +13 1015.1 1000.0
20 20.08 Ю 4-6
{6}
н/о н/о +13.5 +11.2 86 +12 +12 1015.3 1000.1
21 20.08 Ю 4-5
{6}
н/о н/о +13.4 +11.5 88 +12 +12 1015.4 1000.2
22 20.08 Ю 4-6
{7}
н/о н/о +13.2 +11.9 92 +11 +11 1015.5 1000.3
23 20.08 Ю 4-6
{6}
н/о н/о +12.9 +12.0 94 +11 +11 1015.8 1000.6
00 21.08 ЮВ 3-5
{10}
н/о н/о +11.9 +11.3 96 +10 +10 1016.3 1001.0
01 21.08 В 1-3
{3}
н/о н/о +11.5 +11.0 97 +11 +11 1016.7 1001.4
02 21.08 ЮВ 2-3
{3}
н/о н/о +8.5 +7.9 96 +6 +6 1017.1 1001.6
03 21.08 В 1-2
{2}
н/о н/о +8.7 +8.4 98 +8 +8 1017.6 1002.1
04 21.08 Ю 1-2
{2}
н/о н/о +7.3 +7.0 98 +6 +6 1017.8 1002.3
05 21.08 ЮВ 1-2
{2}
н/о н/о +7.7 +7.6 99 +7 +7 1018.3 1002.8
06 21.08 Ю 1-2
{3}
н/о н/о +10.7 +10.5 99 +10 +10 1018.6 1003.2 +6.9 +15.5
07 21.08 ЮВ 1-2
{3}
н/о н/о +12.4 +12.1 98 +12 +12 1018.8 1003.6
08 21.08 З 1-2
{3}
н/о н/о +14.7 +11.9 83 +15 +15 1018.9 1003.8
09 21.08 ЮЗ 3-5
{5}
н/о н/о +16.9 +9.1 60 +17 +17 1018.9 1003.9
10 21.08 З 2-5
{5}
н/о н/о +19.1 +6.3 43 +20 +20 1018.9 1004.0
11 21.08 З 4-6
{6}
н/о н/о +19.2 +5.3 40 +20 +20 1019.2 1004.3
12 21.08 З 2-5
{6}
н/о н/о +17.6 +6.2 47 +18 +18 1019.4 1004.4
13 21.08 З 4-6
{6}
н/о н/о +18.4 +4.6 40 +18 +18 1019.5 1004.6
14 21.08 ЮЗ 4-5
{8}
н/о н/о +19.1 +4.5 38 +19 +19 1019.5 1004.6
15 21.08 З 5-7
{7}
н/о н/о +19.7 +4.6 37 +20 +20 1019.6 1004.8
16 21.08 ЮЗ 3-5
{6}
н/о н/о +19.7 +5.0 38 +21 +21 комфорт 1019.6 1004.7
17 21.08 ЮЗ 4-6
{7}
н/о н/о +18.2 +6.4 46 +18 +18 1019.9 1005.0
18 21.08 Ю 3-5
{8}
н/о н/о +16.0 +8.5 61 +16 +16 1020.2 1005.2 +10.8 +20.2
19 21.08 Ю 2-3
{6}
н/о н/о +12.5 +8.2 75 +12 +12 1020.6 1005.3
20 21.08 Ю 2-3
{3}
н/о н/о +10.1 +7.5 84 +9 +9 1020.9 1005.5
21 21.08 СВ 1-2
{2}
н/о н/о +8.4 +7.2 92 +8 +8 1021.2 1005.6
22 21.08 С 1-1
{2}
н/о н/о +7.4 +6.5 94 +6 +6 1021.4 1005.8
23 21.08 С 1-1
{2}
н/о н/о +6.5 +5.8 95 +5 +5 1021.5 1005.8
00 22.08 С 1-1
{6}
н/о н/о +5.5 +5.1 97 +4 +4 1021.7 1006.0 0.4
01 22.08 С 1-2
{2}
н/о н/о +4.8 +4.4 97 +3 +3 1021.8 1006.1
02 22.08 СВ 1-1
{2}
н/о н/о +4.0 +3.6 97 +2 +2 1022.0 1006.2
03 22.08 С 1-2
{2}
н/о н/о +3.3 +3.0 98 +2 +2 1022.0 1006.2
04 22.08 ЮВ 1-2
{2}
н/о н/о +4.6 +4.6 100 +3 +3 1021.8 1006.0
05 22.08 ЮВ 1-2
{2}
н/о н/о +7.0 +6.9 99 +6 +6 1021.8 1006.2
06 22.08 Ю 2-3
{3}
н/о н/о +9.5 +9.2 98 +8 +8 1021.7 1006.2 +3.2 +15.9 0.4
07 22.08 Ю 2-3
{4}
н/о н/о +11.8 +10.4 91 +11 +11 1021.2 1005.9
08 22.08 Ю 1-3
{3}
н/о н/о +12.8 +11.0 89 +13 +13 1021.1 1005.8
09 22.08 Ю 4-7
{7}
н/о н/о +15.3 +12.1 81 +14 +14 1020.6 1005.4
10 22.08 Ю 5-7
{8}
н/о н/о +15.4 +12.4 82 +14 +14 1020.2 1005.1
11 22.08 Ю 5-7
{8}
н/о н/о +14.5 +12.2 86 +13 +13 1019.9 1004.7
12 22.08 Ю 4-8
{8}
н/о н/о +14.4 +13.5 94 +13 +13 1019.2 1004.1 2
13 22.08 Ю 5-8
{9}
н/о н/о +14.5 +13.4 93 +13 +13 1018.8 1003.7
14 22.08 Ю 5-9
{11}
н/о н/о +14.3 +13.0 92 +13 +13 1018.2 1003.1
15 22.08 ЮВ 6-8
{12}
н/о н/о +13.6 +12.3 92 +11 +11 1016.8 1001.6
16 22.08 Ю 7-12
{14}
н/о н/о +13.7 +12.8 94 +11 +11 1015.9 1000.8
17 22.08 Ю 7-11
{11}
н/о н/о +13.3 +12.5 95 +11 +11 1016.1 1000.9
18 22.08 Ю 5-8
{14}
н/о н/о +13.6 +12.7 94 +12 +12 1016.3 1001.2 +9.5 +15.7 6
19 22.08 Ю 5-9
{9}
н/о н/о +13.5 +12.6 94 +11 +11 1016.5 1001.3
20 22.08 Ю 6-9
{9}
н/о н/о +13.3 +12.5 95 +11 +11 1016.7 1001.5
21 22.08 Ю 6-8
{9}
н/о н/о +13.0 +12.2 95 +10 +10 1016.9 1001.8
22 22.08 Ю 4-6
{7}
н/о н/о +13.1 +12.5 96 +11 +11 1017.0 1001.8
23 22.08 Ю 5-7
{8}
н/о н/о +13.1 +12.3 95 +11 +11 1017.0 1001.8
00 23.08 Ю 3-6
{9}
н/о н/о +12.0 +11.4 96 +10 +10 1017.4 1002.1
01 23.08 Ю 3-3
{7}
н/о н/о +11.2 +10.6 96 +9 +9 1017.1 1001.8
02 23.08 ЮВ 1-3
{4}
н/о н/о +11.1 +10.6 97 +11 +11 1016.4 1001.1
03 23.08 Ю 2-3
{3}
н/о н/о +12.7 +12.4 98 +12 +12 1015.7 1000.5
04 23.08 ЮВ 1-2
{5}
н/о н/о +13.4 +12.9 97 +13 +13 1015.2 1000.0
05 23.08 Ю 1-2
{5}
н/о н/о +13.5 +13.2 98 +14 +14 1015.0 999.8
06 23.08 Ю 1-1
{7}
н/о н/о +14.3 +14.0 98 +15 +15 1014.8 999.7 +10.4 +14.3 0.4
07 23.08 Ю 3-4
{5}
н/о н/о +15.5 +15.0 97 +15 +15 1014.8 999.7
08 23.08 ЮЗ 6-9
{9}
н/о н/о +17.3 +15.3 88 +16 +16 1014.4 999.5
09 23.08 ЮЗ 5-7
{12}
н/о н/о +18.6 +15.3 81 +19 +19 1014.7 999.9
10 23.08 ЮЗ 5-8
{10}
н/о н/о +18.1 +13.8 76 +18 +18 1015.0 1000.2
11 23.08 ЮЗ 4-7
{8}
н/о н/о +19.6 +12.9 65 +21 +21 комфорт 1015.3 1000.5
12 23.08 ЮЗ 4-6
{12}
н/о н/о +20.9 +12.9 60 +24 +24 комфорт 1015.5 1000.8
13 23.08 З 5-8
{10}
н/о н/о +21.4 +12.3 56 +24 +24 комфорт 1015.7 1001.0
14 23.08 З 6-9
{9}
н/о н/о +21.2 +10.1 49 +23 +23 комфорт 1016.1 1001.4
15 23.08 З 3-7
{10}
н/о н/о +22.0 +10.8 49 +24 +24 комфорт 1016.6 1001.9
16 23.08 З 3-4
{8}
н/о н/о +21.9 +7.0 38 +23 +23 комфорт 1016.8 1002.1
17 23.08 ЮЗ 2-4
{6}
н/о н/о +21.4 +6.9 39 +22 +22 комфорт 1017.1 1002.4
18 23.08 ЮЗ 1-2
{10}
н/о н/о +17.1 +9.8 62 +18 +18 1017.8 1002.8 +14.3 +22.7
19 23.08 ЮВ 2-3
{3}
н/о н/о +15.0 +10.0 72 +15 +15 1018.7 1003.6
20 23.08 ЮВ 2-3
{3}
н/о н/о +13.2 +10.4 83 +12 +12 1019.5 1004.3
21 23.08 штиль 0-2
{2}
н/о н/о +11.0 +9.3 89 +10 +10 1020.1 1004.8
22 23.08 СЗ 1-1
{2}
н/о н/о +9.3 +8.2 93 +9 +9 1020.9 1005.4
23 23.08 штиль 0-1
{1}
н/о н/о +10.6 +10.0 96 +10 +10 1021.2 1005.8
00 24.08 ЮВ 1-1
{3}
н/о н/о +11.4 +11.1 98 +11 +11 1021.9 1006.5 0.2
01 24.08 штиль 0-1
{1}
н/о н/о +10.0 +9.4 96 +9 +9 1022.3 1006.8
02 24.08 С 1-1
{2}
н/о н/о +8.5 +8.1 97 +8 +8 1022.7 1007.2
03 24.08 ЮЗ 1-1
{2}
н/о н/о +7.2 +6.9 98 +6 +6 1023.4 1007.8
04 24.08 Ю 1-1
{1}
н/о н/о +8.6 +8.5 99 +8 +8 1023.7 1008.2
05 24.08 штиль 0
{1}
н/о н/о +9.8 +9.7 99 +9 +9 1023.9 1008.4
06 24.08 н/о н/о +11.3 +11.1 99 1024.3 1008.9 +6.7 +17.0 0.2
07 24.08 Ю 1-2
{3}
н/о н/о +12.5 +12.5 100 +12 +12 1024.6 1009.2
08 24.08 Ю 2-3
{3}
н/о н/о +15.7 +15.5 99 +16 +16 1024.9 1009.7
09 24.08 ЮЗ 2-2
{4}
н/о н/о +18.8 +13.9 73 +20 +20 1024.7 1009.7
10 24.08 Ю 3-4
{5}
н/о н/о +20.6 +11.0 54 +23 +23 комфорт 1024.7 1009.8
11 24.08 ЮЗ 2-4
{5}
н/о н/о +21.0 +11.4 54 +24 +24 комфорт 1024.8 1009.9
12 24.08 Ю 3-5
{7}
н/о н/о +21.6 +11.0 51 +23 +23 комфорт 1024.9 1010.0
13 24.08 Ю 3-5
{5}
н/о н/о +22.5 +12.2 52 +25 +25 комфорт 1024.2 1009.5
14 24.08 Ю 3-5
{6}
н/о н/о +23.1 +12.7 52 +26 +26 жарко 1024.5 1009.8
15 24.08 ЮЗ 3-5
{6}
н/о н/о +22.1 +12.4 54 +25 +25 комфорт 1024.4 1009.6
16 24.08 ЮЗ 3-5
{6}
н/о н/о +22.4 +12.6 54 +25 +25 комфорт 1024.1 1009.3
17 24.08 ЮЗ 1-4
{5}
н/о н/о +21.5 +13.4 60 +24 +24 комфорт 1023.9 1009.1
18 24.08 Ю 2-3
{6}
н/о н/о +19.3 +13.9 71 +21 +21 комфорт 1024.3 1009.3 +11.4 +23.8
19 24.08 Ю 2-3
{3}
н/о н/о +15.7 +12.8 83 +16 +16 1024.9 1009.7
20 24.08 Ю 2-2
{3}
н/о н/о +14.4 +12.1 86 +14 +14 1025.1 1009.9
21 24.08 ЮВ 2-3
{4}
н/о н/о +14.1 +12.2 88 +14 +14 1025.2 1009.9
22 24.08 ЮВ 2-3
{3}
н/о н/о +13.3 +12.5 95 +12 +12 1025.1 1009.8
23 24.08 Ю 3-4
{5}
н/о н/о +14.6 +14.0 96 +14 +14 1025.5 1010.2
00 25.08 Ю 2-3
{5}
н/о н/о +14.6 +14.0 96 +14 +14 1025.5 1010.3 0.2
01 25.08 Ю 2-3
{3}
н/о н/о +14.9 +14.3 96 +15 +15 1025.3 1010.1
02 25.08 Ю 2-2
{4}
н/о н/о +15.1 +14.5 96 +15 +15 1025.0 1009.8
03 25.08 Ю 3-5
{5}
н/о н/о +15.2 +14.6 96 +14 +14 1024.9 1009.7
04 25.08 Ю 2-4
{5}
н/о н/о +15.1 +14.6 97 +15 +15 1024.7 1009.5
05 25.08 Ю 3-4
{4}
н/о н/о +15.2 +14.6 96 +14 +14 1024.7 1009.5
06 25.08 Ю 2-4
{5}
н/о н/о +15.6 +14.6 94 +15 +15 1024.7 1009.5 +12.8 +19.4 0.2
07 25.08 Ю 3-4
{4}
н/о н/о +16.2 +14.6 90 +16 +16 1024.7 1009.6
08 25.08 Ю 3-4
{5}
н/о н/о +17.6 +14.7 83 +18 +18 1024.6 1009.5
09 25.08 Ю 4-6
{6}
н/о н/о +20.1 +15.5 75 +23 +23 комфорт 1024.2 1009.3
10 25.08 Ю 4-7
{7}
н/о н/о +21.6 +15.2 67 +25 +25 комфорт 1023.8 1009.0
11 25.08 Ю 5-9
{9}
н/о н/о +23.0 +14.8 60 +27 +27 душно 1023.2 1008.4
12 25.08 Ю 6-9
{9}
н/о н/о +23.7 +13.9 54 +26 +26 жарко 1022.9 1008.2
13 25.08 Ю 5-8
{9}
н/о н/о +23.9 +12.5 49 +26 +26 жарко 1022.9 1008.3
14 25.08 ЮЗ 5-8
{9}
н/о н/о +23.8 +12.8 50 +26 +26 жарко 1022.9 1008.2
15 25.08 Ю 4-6
{8}
н/о н/о +23.9 +12.2 48 +26 +26 жарко 1022.7 1008.0
16 25.08 Ю 4-7
{8}
н/о н/о +23.0 +13.2 54 +26 +26 жарко 1022.5 1007.7
17 25.08 Ю 4-6
{8}
н/о н/о +21.8 +13.2 58 +24 +24 комфорт 1022.5 1007.7

 

Местоположение метеостанции Эурскуг (Норвегия): широта 59.91 долгота 11.58 высота над уровнем моря 128 м.

В архиве по умолчанию представлена погода в Эурскуге за последнюю неделю. Архивные данные за месяц целиком и за предыдущие месяцы, начиная с января 2011 года, Вы можете получить, выбрав интересующий диапазон дат из раскрывающегося списка и нажав кнопку "Ввод!".


*Определитесь, кто Вы:
робот инопланетянин человек

Внимание! Время в таблицах - всемирное. Для получения местного времени необходимо прибавить поправку, которая равна 1 ч.

Смотрите также архив погоды в соседних городах и на ближайших метеорологических станциях:

Погода в Кьеллере (Норвегия) (31 км)
Погода в Конгсвингере (Норвегия) (39 км)
Погода в Осло аэропорту (Норвегия) (43 км)
Погода в Хакадале (Норвегия) (48 км)
Погода в Осло (Норвегия) (48 км)
Погода в Тривассхогде (Норвегия) (51 км)
Погода в Бьорнхолте (Норвегия) (52 км)
Погода в Асе (Норвегия) (53 км)
Погода в Аскере (Норвегия) (65 км)
Погода в Арвике (Швеция) (65 км)

Пояснения к столбцам:

Ветер - указаны скорость ветра в м/с - средняя за 10 мин, порывы в срок и между сроками (в фигурных скобках) и направление, откуда дует ветер: С - северный, СВ - северо-восточный, В - восточный, ЮВ - юго-восточный, Ю - южный, ЮЗ - юго-западный, З - западный, СЗ - северо-западный.
Видимость - горизонтальная дальность видимости в метрах или километрах. При видимости от 1 до 10 км при отсутствии осадков обычно наблюдается дымка, при ухудшении видимости до 1 км и менее - туман. В сухую погоду видимость может ухудшаться дымом, пылью или мглою.
Явления - указаны атмосферные явления, наблюдавшиеся в срок или в последний час перед сроком; фигурными скобками обозначены явления, наблюдавшиеся между сроками (за 1-3 часа до срока); квадратными скобками обозначены град или гололедные отложения с указанием их диаметра в мм.
Облачность - указаны через наклонную черту общая и нижняя облачность в баллах и высота нижней границы облаков в метрах; квадратными скобками обозначены формы облаков: Ci - перистые, Cs - перисто-слоистые, Cc - перисто-кучевые, Ac - высококучевые, As - высокослоистые, Sc - слоисто-кучевые, Ns - слоисто-дождевые, Cu - кучевые, Cb - кучево-дождевые. Подробнее классификацию облаков см. в Атласе облаков (PDF).
T - Температура воздуха - температура, измеренная на высоте 2 м над землей.
Td - Температура точки росы - температура, при понижении до которой содержащийся в воздухе водяной пар достигнет насыщения.
f - Относительная влажность воздуха - влажноcть воздуха, измеренная на высоте 2 м над землей.
Te - Эффективная температура - температура, которую ощущает одетый по сезону человек в тени. Характеристика душности погоды. При расчете учитывается влияние влажности воздуха и скорости ветра на теплоощущения человека.
Tes - Эффективная температура на солнце - температура, которую ощущает человек, с поправкой на солнечный нагрев. Характеристика знойности погоды. Зависит от высоты солнца над горизонтом, облачности и скорости ветра. Ночью, в пасмурную погоду, а также при ветре 12 м/с и более поправка равна нулю.
P - Атмосферное давление - приведенное к уровню моря атмосферное давление.
Po - Атмосферное давление - измеренное на уровне метеостанции атмосферное давление.
Tmin - Минимальная температура - минимум температуры воздуха на высоте 2 м над землей.
Tmax - Максимальная температура - максимум температуры воздуха на высоте 2 м над землей.
R - Количество осадков - Количество выпавших осадков за период времени, мм. При наведении курсора мыши на число - период времени, за который выпало указанное количество осадков.
R24 - Количество осадков - Количество выпавших осадков за 24 часа, мм.
S - Снежный покров - Высота снежного покрова, см. При наведении курсора мыши на число - состояние снежного покрова и степень покрытия местности в баллах.